Find Starlink 34405

NORAD ID: 64704 Int'l Des: 2025-142 Owner: SPXS Country: US Constellation: starlink operational
LEOCIRCULAR

Current View

Loading 3D Globe...

About Starlink 34405

Starlink 34405 (NORAD 64704) is a starlink constellation satellite (v2 mini) launched Jun 28, 2025 by SPXS of US. It operates in LEO, CIRCULAR orbit with a mass of 575.00 kg.

Upcoming Passes

Passes for default location (London). Set your location on the main map for personalized predictions.

Altitude History

Loading altitude history...

Two-Line Element Set

1 64704U 25142J 26238.40150632 .00003160 00000-0 27242-3 0 9997
2 64704 69.9996 246.4859 0003676 261.5819 98.4923 14.98346494 64910
Epoch: Aug 26, 2026 • Age: 9 hours

Current Status

Altitude 584.0 km
Apogee / Perigee N/A
Velocity 7.57 km/s
Sub-Earth Point 60.82°N, 138.01°E
Launch Date Jun 28, 2025
Age 1.1 years
Type internet

Technical Details

Classification Payload
Mass 575.00 kg
Dry Mass 530.00 kg
Total Mass 575.00 kg
Length 0.30 m
Diameter 4.10 m
Span 29.00 m
Shape Box + pan
Manufacturer SPXS
Bus Type Starlink V2MO
Phase Status In Orbit
Owner/State SPXS/US

Most Searched